Location: Fours
(44.3167°N, 6.7000°E)
Time: 04:52:35
(UTC+00:00)

SMAP - Pass Details

Date: 30 November 2020
Orbit: 681 x 683 km, 98.1° (Epoch: 24 January)

Event Time Altitude Azimuth Distance (km) Brightness Sun altitude
Rises 16:20:12 0° 147° (SSE) 3,035 6.3 -4.7°
Reaches altitude 10° 16:22:31 10° 140° (SE) 2,124 5.5 -5.1°
Maximum altitude 16:26:53 42° 70° (ENE) 971 3.4 -5.8°
Drops below altitude 10° 16:31:17 10° 360° (N) 2,140 5.4 -6.5°
Sets 16:33:37 0° 354° (N) 3,060 6.2 -6.9°
